Time,TemperatureF,DewpointF,PressureIn,WindDirection,WindDirectionDegrees,WindSpeedMPH,WindSpeedGustMPH,Humidity,HourlyPrecipIn,Conditions,Clouds,dailyrainin,SoftwareType,DateUTC
2013-02-20 00:00:00,25.4,23.4,29.55,North,360,16.0,16.0,92,0.00,,,0.03,Wunderground v.1.15,2013-02-20 05:00:00,
2013-02-20 00:05:00,25.4,23.7,29.55,WNW,287,14.0,16.0,93,0.00,,,0.00,Wunderground v.1.15,2013-02-20 05:05:00,
2013-02-20 00:10:00,25.0,23.0,29.55,West,271,14.0,21.0,92,0.00,,,0.00,Wunderground v.1.15,2013-02-20 05:10:00,
2013-02-20 00:15:00,24.7,22.4,29.55,WNW,296,18.0,28.0,91,0.00,,,0.00,Wunderground v.1.15,2013-02-20 05:15:00,
2013-02-20 00:20:00,24.5,22.2,29.55,West,277,18.0,18.0,91,0.00,,,0.00,Wunderground v.1.15,2013-02-20 05:20:00,
2013-02-20 00:25:00,24.4,21.9,29.56,WNW,285,15.0,18.0,90,0.00,,,0.00,Wunderground v.1.15,2013-02-20 05:25:00,
2013-02-20 00:30:00,24.3,21.5,29.56,West,275,12.0,12.0,89,0.00,,,0.00,Wunderground v.1.15,2013-02-20 05:30:00,
2013-02-20 00:40:00,24.2,21.2,29.56,West,265,12.0,12.0,88,0.00,,,0.00,Wunderground v.1.15,2013-02-20 05:40:00,
2013-02-20 00:45:00,24.2,20.9,29.56,WNW,288,12.0,13.0,87,0.00,,,0.00,Wunderground v.1.15,2013-02-20 05:45:00,
2013-02-20 00:49:00,24.0,20.4,29.56,West,270,12.0,15.0,86,0.00,,,0.00,Wunderground v.1.15,2013-02-20 05:49:00,
2013-02-20 00:55:00,23.8,19.9,29.56,West,271,14.0,15.0,85,0.00,,,0.00,Wunderground v.1.15,2013-02-20 05:55:00,
2013-02-20 01:00:00,23.7,19.3,29.56,West,271,16.0,16.0,83,0.00,,,0.00,Wunderground v.1.15,2013-02-20 06:00:00,
2013-02-20 01:10:00,23.3,18.9,29.56,West,275,16.0,16.0,83,0.00,,,0.00,Wunderground v.1.15,2013-02-20 06:10:00,
2013-02-20 01:15:00,23.0,18.3,29.56,WSW,258,16.0,16.0,82,0.00,,,0.00,Wunderground v.1.15,2013-02-20 06:15:00,
2013-02-20 01:20:00,23.0,18.3,29.56,WNW,284,15.0,16.0,82,0.00,,,0.00,Wunderground v.1.15,2013-02-20 06:20:00,
2013-02-20 01:25:00,22.9,17.9,29.56,West,276,14.0,16.0,81,0.00,,,0.00,Wunderground v.1.15,2013-02-20 06:25:00,
2013-02-20 01:30:00,22.9,18.2,29.56,West,276,12.0,13.0,82,0.00,,,0.00,Wunderground v.1.15,2013-02-20 06:30:00,
2013-02-20 01:40:00,22.9,18.2,29.57,West,271,10.0,10.0,82,0.00,,,0.00,Wunderground v.1.15,2013-02-20 06:40:00,
2013-02-20 01:45:00,23.0,18.0,29.58,WSW,249,9.0,10.0,81,0.00,,,0.00,Wunderground v.1.15,2013-02-20 06:45:00,
2013-02-20 01:50:00,23.3,18.3,29.58,West,271,10.0,10.0,81,0.00,,,0.00,Wunderground v.1.15,2013-02-20 06:50:00,
2013-02-20 01:55:00,23.4,18.4,29.58,West,265,10.0,14.0,81,0.00,,,0.00,Wunderground v.1.15,2013-02-20 06:55:00,
2013-02-20 02:00:00,23.3,18.3,29.58,West,271,10.0,10.0,81,0.00,,,0.00,Wunderground v.1.15,2013-02-20 07:00:00,
2013-02-20 02:04:00,23.3,18.3,29.58,West,260,9.0,10.0,81,0.00,,,0.00,Wunderground v.1.15,2013-02-20 07:04:00,
2013-02-20 02:10:00,23.2,17.9,29.57,West,265,8.0,12.0,80,0.00,,,0.00,Wunderground v.1.15,2013-02-20 07:10:00,
2013-02-20 02:15:00,23.0,17.7,29.57,WNW,287,9.0,12.0,80,0.00,,,0.00,Wunderground v.1.15,2013-02-20 07:15:00,
2013-02-20 02:20:00,22.8,17.6,29.58,West,274,10.0,10.0,80,0.00,,,0.00,Wunderground v.1.15,2013-02-20 07:20:00,
2013-02-20 02:25:00,22.7,17.7,29.58,West,278,9.0,10.0,81,0.00,,,0.00,Wunderground v.1.15,2013-02-20 07:25:00,
2013-02-20 02:30:00,22.7,17.7,29.58,West,263,10.0,10.0,81,0.00,,,0.00,Wunderground v.1.15,2013-02-20 07:30:00,
2013-02-20 02:35:00,22.4,17.7,29.59,West,267,11.0,11.0,82,0.00,,,0.00,Wunderground v.1.15,2013-02-20 07:35:00,
2013-02-20 02:45:00,22.1,18.0,29.58,WSW,254,12.0,12.0,84,0.00,,,0.00,Wunderground v.1.15,2013-02-20 07:45:00,
2013-02-20 02:50:00,22.1,18.0,29.58,West,264,10.0,12.0,84,0.00,,,0.00,Wunderground v.1.15,2013-02-20 07:50:00,
2013-02-20 02:55:00,22.2,18.1,29.58,West,262,9.0,12.0,84,0.00,,,0.00,Wunderground v.1.15,2013-02-20 07:55:00,
2013-02-20 03:00:00,22.2,18.1,29.58,West,277,7.0,7.0,84,0.00,,,0.00,Wunderground v.1.15,2013-02-20 08:00:00,
2013-02-20 03:05:00,22.2,17.8,29.58,West,277,6.0,8.0,83,0.00,,,0.00,Wunderground v.1.15,2013-02-20 08:05:00,
2013-02-20 03:15:00,22.3,17.6,29.58,WNW,285,8.0,10.0,82,0.00,,,0.00,Wunderground v.1.15,2013-02-20 08:15:00,
2013-02-20 03:20:00,22.3,17.6,29.58,WSW,247,7.0,9.0,82,0.00,,,0.00,Wunderground v.1.15,2013-02-20 08:20:00,
2013-02-20 03:25:00,22.2,17.3,29.58,WSW,250,8.0,9.0,81,0.00,,,0.00,Wunderground v.1.15,2013-02-20 08:25:00,
2013-02-20 03:30:00,22.2,17.0,29.58,West,268,10.0,12.0,80,0.00,,,0.00,Wunderground v.1.15,2013-02-20 08:30:00,
2013-02-20 03:35:00,22.3,16.8,29.58,West,265,11.0,13.0,79,0.00,,,0.00,Wunderground v.1.15,2013-02-20 08:35:00,
2013-02-20 03:40:00,22.2,16.7,29.58,WSW,248,10.0,10.0,79,0.00,,,0.00,Wunderground v.1.15,2013-02-20 08:40:00,
2013-02-20 03:45:00,22.1,16.6,29.58,West,269,9.0,10.0,79,0.00,,,0.00,Wunderground v.1.15,2013-02-20 08:45:00,
2013-02-20 03:50:00,22.1,16.6,29.58,WSW,257,8.0,8.0,79,0.00,,,0.00,Wunderground v.1.15,2013-02-20 08:50:00,
2013-02-20 03:55:00,22.1,16.6,29.59,West,259,7.0,9.0,79,0.00,,,0.00,Wunderground v.1.15,2013-02-20 08:55:00,
2013-02-20 04:00:00,22.0,16.8,29.59,West,263,6.0,6.0,80,0.00,,,0.00,Wunderground v.1.15,2013-02-20 09:00:00,
2013-02-20 04:05:00,21.9,16.7,29.59,West,279,5.0,9.0,80,0.00,,,0.00,Wunderground v.1.15,2013-02-20 09:05:00,
2013-02-20 04:10:00,22.0,16.8,29.59,WNW,290,4.0,14.0,80,0.00,,,0.00,Wunderground v.1.15,2013-02-20 09:10:00,
2013-02-20 04:20:00,21.9,16.4,29.58,West,268,10.0,10.0,79,0.00,,,0.00,Wunderground v.1.15,2013-02-20 09:20:00,
2013-02-20 04:25:00,21.6,16.4,29.58,West,271,12.0,14.0,80,0.00,,,0.00,Wunderground v.1.15,2013-02-20 09:25:00,
2013-02-20 04:30:00,21.3,16.1,29.58,West,269,13.0,13.0,80,0.00,,,0.00,Wunderground v.1.15,2013-02-20 09:30:00,
2013-02-20 04:35:00,21.2,16.0,29.58,WNW,284,11.0,13.0,80,0.00,,,0.00,Wunderground v.1.15,2013-02-20 09:35:00,
2013-02-20 04:45:00,21.1,15.9,29.59,West,260,10.0,10.0,80,0.00,,,0.00,Wunderground v.1.15,2013-02-20 09:45:00,
2013-02-20 04:50:00,21.1,15.9,29.59,West,273,9.0,9.0,80,0.00,,,0.00,Wunderground v.1.15,2013-02-20 09:50:00,
2013-02-20 04:55:00,21.0,15.8,29.59,WNW,283,9.0,11.0,80,0.00,,,0.00,Wunderground v.1.15,2013-02-20 09:55:00,
2013-02-20 05:00:00,21.0,15.8,29.59,West,263,10.0,10.0,80,0.00,,,0.00,Wunderground v.1.15,2013-02-20 10:00:00,
2013-02-20 05:05:00,20.9,16.0,29.59,West,281,11.0,11.0,81,0.00,,,0.00,Wunderground v.1.15,2013-02-20 10:05:00,
2013-02-20 05:10:00,20.8,15.9,29.59,West,272,12.0,12.0,81,0.00,,,0.00,Wunderground v.1.15,2013-02-20 10:10:00,
2013-02-20 05:20:00,20.7,16.1,29.59,West,269,9.0,11.0,82,0.00,,,0.00,Wunderground v.1.15,2013-02-20 10:20:00,
2013-02-20 05:30:00,20.6,16.0,29.60,West,264,10.0,13.0,82,0.00,,,0.00,Wunderground v.1.15,2013-02-20 10:30:00,
2013-02-20 05:35:00,20.5,16.2,29.59,West,265,10.0,13.0,83,0.00,,,0.00,Wunderground v.1.15,2013-02-20 10:35:00,
2013-02-20 05:40:00,20.4,16.1,29.60,West,266,10.0,10.0,83,0.00,,,0.00,Wunderground v.1.15,2013-02-20 10:40:00,
2013-02-20 05:45:00,20.4,16.1,29.59,West,274,10.0,10.0,83,0.00,,,0.00,Wunderground v.1.15,2013-02-20 10:45:00,
2013-02-20 05:55:00,20.4,16.3,29.60,West,265,12.0,12.0,84,0.00,,,0.00,Wunderground v.1.15,2013-02-20 10:55:00,
2013-02-20 05:59:00,20.3,16.2,29.60,West,273,12.0,12.0,84,0.00,,,0.00,Wunderground v.1.15,2013-02-20 10:59:00,
2013-02-20 06:05:00,20.1,16.0,29.60,WNW,289,11.0,16.0,84,0.00,,,0.00,Wunderground v.1.15,2013-02-20 11:05:00,
2013-02-20 06:10:00,20.1,16.0,29.60,West,259,13.0,13.0,84,0.00,,,0.00,Wunderground v.1.15,2013-02-20 11:10:00,
2013-02-20 06:20:00,20.0,15.7,29.61,West,271,12.0,14.0,83,0.00,,,0.00,Wunderground v.1.15,2013-02-20 11:20:00,
2013-02-20 06:25:00,20.0,15.7,29.61,West,276,12.0,14.0,83,0.00,,,0.00,Wunderground v.1.15,2013-02-20 11:25:00,
2013-02-20 06:30:00,20.0,15.4,29.61,West,268,12.0,12.0,82,0.00,,,0.00,Wunderground v.1.15,2013-02-20 11:30:00,
2013-02-20 06:40:00,19.8,15.2,29.61,WSW,238,10.0,10.0,82,0.00,,,0.00,Wunderground v.1.15,2013-02-20 11:40:00,
2013-02-20 06:45:00,19.8,15.2,29.61,West,268,9.0,10.0,82,0.00,,,0.00,Wunderground v.1.15,2013-02-20 11:45:00,
2013-02-20 06:54:00,19.9,15.3,29.61,West,264,9.0,9.0,82,0.00,,,0.00,Wunderground v.1.15,2013-02-20 11:54:00,
2013-02-20 06:59:00,19.7,15.1,29.61,West,264,9.0,9.0,82,0.00,,,0.00,Wunderground v.1.15,2013-02-20 11:59:00,
2013-02-20 07:05:00,19.7,15.1,29.61,West,261,7.0,9.0,82,0.00,,,0.00,Wunderground v.1.15,2013-02-20 12:05:00,
2013-02-20 07:10:00,19.8,14.9,29.61,West,265,8.0,11.0,81,0.00,,,0.00,Wunderground v.1.15,2013-02-20 12:10:00,
2013-02-20 07:15:00,19.8,14.6,29.61,WSW,243,10.0,11.0,80,0.00,,,0.00,Wunderground v.1.15,2013-02-20 12:15:00,
2013-02-20 07:25:00,19.6,14.1,29.61,West,275,10.0,15.0,79,0.00,,,0.00,Wunderground v.1.15,2013-02-20 12:25:00,
2013-02-20 07:30:00,19.5,13.8,29.61,West,262,11.0,11.0,78,0.00,,,0.00,Wunderground v.1.15,2013-02-20 12:30:00,
2013-02-20 07:35:00,19.5,13.8,29.62,West,267,12.0,12.0,78,0.00,,,0.00,Wunderground v.1.15,2013-02-20 12:35:00,
2013-02-20 07:40:00,19.5,13.8,29.62,West,274,12.0,13.0,78,0.00,,,0.00,Wunderground v.1.15,2013-02-20 12:40:00,
2013-02-20 07:45:00,19.4,13.7,29.62,West,263,11.0,13.0,78,0.00,,,0.00,Wunderground v.1.15,2013-02-20 12:45:00,
2013-02-20 07:50:00,19.4,13.7,29.62,West,265,9.0,12.0,78,0.00,,,0.00,Wunderground v.1.15,2013-02-20 12:50:00,
2013-02-20 08:00:00,19.7,14.0,29.62,WSW,250,9.0,10.0,78,0.00,,,0.00,Wunderground v.1.15,2013-02-20 13:00:00,
2013-02-20 08:05:00,19.8,14.0,29.63,West,262,9.0,10.0,78,0.00,,,0.00,Wunderground v.1.15,2013-02-20 13:05:00,
2013-02-20 08:15:00,20.6,14.5,29.62,West,265,10.0,14.0,77,0.00,,,0.00,Wunderground v.1.15,2013-02-20 13:15:00,
2013-02-20 08:20:00,20.8,14.7,29.62,West,281,11.0,12.0,77,0.00,,,0.00,Wunderground v.1.15,2013-02-20 13:20:00,
2013-02-20 08:25:00,20.5,14.4,29.62,WSW,253,10.0,12.0,77,0.00,,,0.00,Wunderground v.1.15,2013-02-20 13:25:00,
2013-02-20 08:30:00,20.6,14.5,29.63,WSW,254,9.0,18.0,77,0.00,,,0.00,Wunderground v.1.15,2013-02-20 13:30:00,
2013-02-20 08:35:00,20.7,14.6,29.62,WSW,246,9.0,18.0,77,0.00,,,0.00,Wunderground v.1.15,2013-02-20 13:35:00,
2013-02-20 08:40:00,20.5,14.1,29.62,West,264,11.0,11.0,76,0.00,,,0.00,Wunderground v.1.15,2013-02-20 13:40:00,
2013-02-20 08:45:00,20.6,13.9,29.63,WSW,244,12.0,12.0,75,0.00,,,0.00,Wunderground v.1.15,2013-02-20 13:45:00,
2013-02-20 08:50:00,20.7,13.4,29.62,West,278,12.0,13.0,73,0.00,,,0.00,Wunderground v.1.15,2013-02-20 13:50:00,
2013-02-20 09:00:00,20.5,13.5,29.62,West,261,14.0,14.0,74,0.00,,,0.00,Wunderground v.1.15,2013-02-20 14:00:00,
2013-02-20 09:05:00,20.5,13.5,29.62,West,264,14.0,15.0,74,0.00,,,0.00,Wunderground v.1.15,2013-02-20 14:05:00,
2013-02-20 09:10:00,20.6,13.3,29.63,WNW,287,14.0,14.0,73,0.00,,,0.00,Wunderground v.1.15,2013-02-20 14:10:00,
2013-02-20 09:15:00,20.9,13.3,29.63,WSW,258,12.0,14.0,72,0.00,,,0.00,Wunderground v.1.15,2013-02-20 14:15:00,
2013-02-20 09:20:00,20.6,13.3,29.62,WSW,245,11.0,19.0,73,0.00,,,0.00,Wunderground v.1.15,2013-02-20 14:20:00,
2013-02-20 09:25:00,20.6,12.7,29.62,WSW,249,13.0,19.0,71,0.00,,,0.00,Wunderground v.1.15,2013-02-20 14:25:00,
2013-02-20 09:35:00,20.8,13.5,29.62,WSW,250,14.0,15.0,73,0.00,,,0.00,Wunderground v.1.15,2013-02-20 14:35:00,
2013-02-20 09:45:00,21.2,13.3,29.63,WSW,254,13.0,13.0,71,0.00,,,0.00,Wunderground v.1.15,2013-02-20 14:45:00,
2013-02-20 09:49:00,21.2,13.6,29.63,WSW,247,13.0,13.0,72,0.00,,,0.00,Wunderground v.1.15,2013-02-20 14:49:00,
2013-02-20 09:54:00,21.3,12.7,29.63,WSW,257,14.0,16.0,69,0.00,,,0.00,Wunderground v.1.15,2013-02-20 14:54:00,
2013-02-20 10:00:00,21.4,12.8,29.62,WNW,295,15.0,18.0,69,0.00,,,0.00,Wunderground v.1.15,2013-02-20 15:00:00,
2013-02-20 10:05:00,21.2,12.6,29.62,WNW,298,15.0,18.0,69,0.00,,,0.00,Wunderground v.1.15,2013-02-20 15:05:00,
2013-02-20 10:10:00,21.6,13.3,29.62,WSW,246,13.0,21.0,70,0.00,,,0.00,Wunderground v.1.15,2013-02-20 15:10:00,
2013-02-20 10:15:00,20.9,13.0,29.63,WNW,301,14.0,21.0,71,0.00,,,0.00,Wunderground v.1.15,2013-02-20 15:15:00,
2013-02-20 10:20:00,21.1,13.2,29.63,WSW,250,16.0,16.0,71,0.00,,,0.00,Wunderground v.1.15,2013-02-20 15:20:00,
2013-02-20 10:25:00,21.2,12.6,29.63,WNW,286,12.0,16.0,69,0.00,,,0.00,Wunderground v.1.15,2013-02-20 15:25:00,
2013-02-20 10:35:00,21.2,12.6,29.63,WSW,254,14.0,14.0,69,0.00,,,0.00,Wunderground v.1.15,2013-02-20 15:35:00,
2013-02-20 10:40:00,21.0,12.1,29.63,WSW,254,14.0,14.0,68,0.00,,,0.00,Wunderground v.1.15,2013-02-20 15:40:00,
2013-02-20 10:45:00,20.8,13.2,29.63,West,269,15.0,15.0,72,0.00,,,0.00,Wunderground v.1.15,2013-02-20 15:45:00,
2013-02-20 10:50:00,20.8,12.9,29.63,WNW,283,17.0,17.0,71,0.00,,,0.00,Wunderground v.1.15,2013-02-20 15:50:00,
2013-02-20 10:55:00,21.1,12.8,29.63,West,275,16.0,17.0,70,0.00,,,0.00,Wunderground v.1.15,2013-02-20 15:55:00,
2013-02-20 11:00:00,21.1,12.5,29.63,West,272,15.0,15.0,69,0.00,,,0.00,Wunderground v.1.15,2013-02-20 16:00:00,
2013-02-20 11:10:00,21.1,12.2,29.63,WNW,283,13.0,14.0,68,0.00,,,0.00,Wunderground v.1.15,2013-02-20 16:10:00,
2013-02-20 11:15:00,21.9,13.0,29.64,West,275,13.0,16.0,68,0.00,,,0.00,Wunderground v.1.15,2013-02-20 16:15:00,
2013-02-20 11:20:00,21.6,12.7,29.64,WSW,253,12.0,15.0,68,0.00,,,0.00,Wunderground v.1.15,2013-02-20 16:20:00,
2013-02-20 11:25:00,21.5,12.6,29.64,WSW,258,12.0,15.0,68,0.00,,,0.00,Wunderground v.1.15,2013-02-20 16:25:00,
2013-02-20 11:30:00,21.7,12.8,29.64,WSW,258,13.0,13.0,68,0.00,,,0.00,Wunderground v.1.15,2013-02-20 16:30:00,
2013-02-20 11:40:00,21.9,13.0,29.64,West,281,11.0,14.0,68,0.00,,,0.00,Wunderground v.1.15,2013-02-20 16:40:00,
2013-02-20 11:45:00,22.3,13.0,29.65,West,279,10.0,14.0,67,0.00,,,0.00,Wunderground v.1.15,2013-02-20 16:45:00,
2013-02-20 11:50:00,21.8,12.2,29.65,WSW,253,12.0,15.0,66,0.00,,,0.00,Wunderground v.1.15,2013-02-20 16:50:00,
2013-02-20 11:55:00,21.3,11.7,29.65,West,273,15.0,18.0,66,0.00,,,0.00,Wunderground v.1.15,2013-02-20 16:55:00,
2013-02-20 12:00:00,21.2,12.6,29.65,West,259,16.0,16.0,69,0.00,,,0.00,Wunderground v.1.15,2013-02-20 17:00:00,
2013-02-20 12:10:00,21.1,12.8,29.65,West,277,15.0,15.0,70,0.00,,,0.00,Wunderground v.1.15,2013-02-20 17:10:00,
2013-02-20 12:15:00,21.1,12.2,29.65,WSW,246,15.0,15.0,68,0.00,,,0.00,Wunderground v.1.15,2013-02-20 17:15:00,
2013-02-20 12:20:00,21.0,13.1,29.64,WSW,258,14.0,14.0,71,0.00,,,0.00,Wunderground v.1.15,2013-02-20 17:20:00,
2013-02-20 12:25:00,21.3,13.0,29.64,West,270,13.0,19.0,70,0.00,,,0.00,Wunderground v.1.15,2013-02-20 17:25:00,
2013-02-20 12:30:00,21.0,12.1,29.64,WNW,288,15.0,15.0,68,0.00,,,0.00,Wunderground v.1.15,2013-02-20 17:30:00,
2013-02-20 12:35:00,20.7,12.5,29.64,West,276,16.0,16.0,70,0.00,,,0.00,Wunderground v.1.15,2013-02-20 17:35:00,
2013-02-20 12:45:00,21.0,13.1,29.64,WSW,258,14.0,15.0,71,0.00,,,0.00,Wunderground v.1.15,2013-02-20 17:45:00,
2013-02-20 12:50:00,21.3,13.4,29.64,WNW,302,14.0,16.0,71,0.00,,,0.00,Wunderground v.1.15,2013-02-20 17:50:00,
2013-02-20 12:55:00,21.6,13.6,29.65,WNW,284,13.0,16.0,71,0.00,,,0.00,Wunderground v.1.15,2013-02-20 17:55:00,
2013-02-20 13:00:00,21.7,13.4,29.64,WNW,298,13.0,13.0,70,0.00,,,0.00,Wunderground v.1.15,2013-02-20 18:00:00,
2013-02-20 13:05:00,21.4,12.8,29.65,WNW,302,15.0,15.0,69,0.00,,,0.00,Wunderground v.1.15,2013-02-20 18:05:00,
2013-02-20 13:14:00,21.3,12.7,29.65,WSW,257,15.0,15.0,69,0.00,,,0.00,Wunderground v.1.15,2013-02-20 18:14:00,
2013-02-20 13:19:00,21.4,12.8,29.65,West,277,14.0,21.0,69,0.00,,,0.00,Wunderground v.1.15,2013-02-20 18:19:00,
2013-02-20 13:25:00,21.3,12.4,29.66,West,275,14.0,21.0,68,0.00,,,0.00,Wunderground v.1.15,2013-02-20 18:25:00,
2013-02-20 13:30:00,20.9,12.3,29.66,NW,307,16.0,18.0,69,0.00,,,0.00,Wunderground v.1.15,2013-02-20 18:30:00,
2013-02-20 13:35:00,20.8,12.2,29.65,West,268,16.0,18.0,69,0.00,,,0.00,Wunderground v.1.15,2013-02-20 18:35:00,
2013-02-20 13:45:00,21.5,13.2,29.65,West,261,14.0,16.0,70,0.00,,,0.00,Wunderground v.1.15,2013-02-20 18:45:00,
2013-02-20 13:50:00,21.7,13.7,29.66,West,275,12.0,13.0,71,0.00,,,0.00,Wunderground v.1.15,2013-02-20 18:50:00,
2013-02-20 13:55:00,21.4,13.5,29.66,WNW,294,13.0,13.0,71,0.00,,,0.00,Wunderground v.1.15,2013-02-20 18:55:00,
2013-02-20 14:00:00,21.7,14.4,29.66,WNW,302,15.0,15.0,73,0.00,,,0.00,Wunderground v.1.15,2013-02-20 19:00:00,
2013-02-20 14:05:00,21.9,14.6,29.66,WSW,250,13.0,15.0,73,0.00,,,0.00,Wunderground v.1.15,2013-02-20 19:05:00,
2013-02-20 14:10:00,21.7,14.1,29.66,WNW,300,12.0,12.0,72,0.00,,,0.00,Wunderground v.1.15,2013-02-20 19:10:00,
2013-02-20 14:19:00,21.7,13.7,29.66,WNW,290,13.0,13.0,71,0.00,,,0.00,Wunderground v.1.15,2013-02-20 19:19:00,
2013-02-20 14:25:00,21.5,13.9,29.66,WSW,254,12.0,13.0,72,0.00,,,0.00,Wunderground v.1.15,2013-02-20 19:25:00,
2013-02-20 14:30:00,21.2,14.2,29.67,WSW,245,12.0,12.0,74,0.00,,,0.00,Wunderground v.1.15,2013-02-20 19:30:00,
2013-02-20 14:35:00,21.3,14.6,29.67,WSW,252,10.0,12.0,75,0.00,,,0.00,Wunderground v.1.15,2013-02-20 19:35:00,
2013-02-20 14:40:00,21.4,14.4,29.67,WSW,247,10.0,11.0,74,0.00,,,0.00,Wunderground v.1.15,2013-02-20 19:40:00,
2013-02-20 14:50:00,21.1,13.5,29.68,WNW,284,13.0,17.0,72,0.00,,,0.00,Wunderground v.1.15,2013-02-20 19:50:00,
2013-02-20 14:55:00,20.8,13.2,29.67,West,260,14.0,17.0,72,0.00,,,0.00,Wunderground v.1.15,2013-02-20 19:55:00,
2013-02-20 15:00:00,21.2,14.2,29.68,WSW,246,12.0,12.0,74,0.00,,,0.00,Wunderground v.1.15,2013-02-20 20:00:00,
2013-02-20 15:05:00,21.3,14.3,29.68,West,272,9.0,12.0,74,0.00,,,0.00,Wunderground v.1.15,2013-02-20 20:05:00,
2013-02-20 15:10:00,21.2,14.2,29.68,West,267,9.0,9.0,74,0.00,,,0.00,Wunderground v.1.15,2013-02-20 20:10:00,
2013-02-20 15:19:00,20.8,14.1,29.68,West,268,11.0,11.0,75,0.00,,,0.00,Wunderground v.1.15,2013-02-20 20:19:00,
2013-02-20 15:25:00,20.8,13.8,29.69,WNW,283,11.0,13.0,74,0.00,,,0.00,Wunderground v.1.15,2013-02-20 20:25:00,
2013-02-20 15:30:00,20.7,13.7,29.69,West,272,13.0,13.0,74,0.00,,,0.00,Wunderground v.1.15,2013-02-20 20:30:00,
2013-02-20 15:35:00,20.9,14.2,29.69,WSW,252,10.0,13.0,75,0.00,,,0.00,Wunderground v.1.15,2013-02-20 20:35:00,
2013-02-20 15:40:00,20.8,14.1,29.69,WSW,257,8.0,12.0,75,0.00,,,0.00,Wunderground v.1.15,2013-02-20 20:40:00,
2013-02-20 15:50:00,20.7,14.3,29.69,West,270,10.0,10.0,76,0.00,,,0.00,Wunderground v.1.15,2013-02-20 20:50:00,
2013-02-20 15:55:00,20.6,13.9,29.70,WNW,296,11.0,12.0,75,0.00,,,0.00,Wunderground v.1.15,2013-02-20 20:55:00,
2013-02-20 16:00:00,20.2,13.8,29.70,WNW,289,13.0,17.0,76,0.00,,,0.00,Wunderground v.1.15,2013-02-20 21:00:00,
2013-02-20 16:05:00,20.1,13.7,29.70,West,271,14.0,17.0,76,0.00,,,0.00,Wunderground v.1.15,2013-02-20 21:05:00,
2013-02-20 16:10:00,20.1,13.7,29.70,WNW,286,13.0,20.0,76,0.00,,,0.00,Wunderground v.1.15,2013-02-20 21:10:00,
2013-02-20 16:15:00,20.0,13.6,29.70,WNW,298,14.0,20.0,76,0.00,,,0.00,Wunderground v.1.15,2013-02-20 21:15:00,
2013-02-20 16:25:00,19.7,13.4,29.71,West,278,15.0,17.0,76,0.00,,,0.00,Wunderground v.1.15,2013-02-20 21:25:00,
2013-02-20 16:30:00,19.7,14.0,29.71,West,273,13.0,13.0,78,0.00,,,0.00,Wunderground v.1.15,2013-02-20 21:30:00,
2013-02-20 16:35:00,19.8,14.0,29.71,West,263,9.0,13.0,78,0.00,,,0.00,Wunderground v.1.15,2013-02-20 21:35:00,
2013-02-20 16:40:00,19.7,14.2,29.72,West,260,8.0,9.0,79,0.00,,,0.00,Wunderground v.1.15,2013-02-20 21:40:00,
2013-02-20 16:45:00,19.4,14.5,29.72,WNW,285,9.0,12.0,81,0.00,,,0.00,Wunderground v.1.15,2013-02-20 21:45:00,
2013-02-20 16:55:00,19.1,14.5,29.72,West,261,11.0,14.0,82,0.00,,,0.00,Wunderground v.1.15,2013-02-20 21:55:00,
2013-02-20 17:00:00,19.0,15.0,29.72,West,265,13.0,14.0,84,0.00,,,0.00,Wunderground v.1.15,2013-02-20 22:00:00,
2013-02-20 17:05:00,19.0,15.0,29.72,West,267,13.0,14.0,84,0.00,,,0.00,Wunderground v.1.15,2013-02-20 22:05:00,
2013-02-20 17:10:00,18.9,14.9,29.72,West,266,12.0,13.0,84,0.00,,,0.00,Wunderground v.1.15,2013-02-20 22:10:00,
2013-02-20 17:15:00,18.9,15.1,29.72,West,261,11.0,13.0,85,0.00,,,0.00,Wunderground v.1.15,2013-02-20 22:15:00,
2013-02-20 17:24:00,18.6,15.1,29.72,West,277,10.0,15.0,86,0.00,,,0.00,Wunderground v.1.15,2013-02-20 22:24:00,
2013-02-20 17:30:00,18.5,15.0,29.72,West,278,12.0,13.0,86,0.00,,,0.00,Wunderground v.1.15,2013-02-20 22:30:00,
2013-02-20 17:40:00,18.5,15.0,29.73,West,270,12.0,14.0,86,0.00,,,0.00,Wunderground v.1.15,2013-02-20 22:40:00,
2013-02-20 17:45:00,18.6,15.1,29.73,West,274,12.0,14.0,86,0.00,,,0.00,Wunderground v.1.15,2013-02-20 22:45:00,
2013-02-20 17:55:00,18.6,15.1,29.74,West,263,11.0,13.0,86,0.00,,,0.00,Wunderground v.1.15,2013-02-20 22:55:00,
2013-02-20 18:00:00,18.7,15.2,29.75,West,261,11.0,11.0,86,0.00,,,0.00,Wunderground v.1.15,2013-02-20 23:00:00,
2013-02-20 18:05:00,18.7,15.2,29.75,West,261,11.0,15.0,86,0.00,,,0.00,Wunderground v.1.15,2013-02-20 23:05:00,
2013-02-20 18:15:00,18.6,15.4,29.75,NNW,348,14.0,16.0,87,0.00,,,0.00,Wunderground v.1.15,2013-02-20 23:15:00,
2013-02-20 18:20:00,18.7,15.5,29.74,WSW,254,13.0,13.0,87,0.00,,,0.00,Wunderground v.1.15,2013-02-20 23:20:00,
2013-02-20 18:30:00,18.6,15.4,29.74,West,262,11.0,12.0,87,0.00,,,0.00,Wunderground v.1.15,2013-02-20 23:30:00,
2013-02-20 18:35:00,18.6,15.1,29.75,West,269,11.0,12.0,86,0.00,,,0.00,Wunderground v.1.15,2013-02-20 23:35:00,
2013-02-20 18:40:00,18.7,15.2,29.75,WNW,284,10.0,13.0,86,0.00,,,0.00,Wunderground v.1.15,2013-02-20 23:40:00,
2013-02-20 18:44:00,18.7,14.9,29.75,West,265,13.0,14.0,85,0.00,,,0.00,Wunderground v.1.15,2013-02-20 23:44:00,
2013-02-20 18:49:00,18.7,14.9,29.75,West,281,15.0,15.0,85,0.00,,,0.00,Wunderground v.1.15,2013-02-20 23:49:00,
2013-02-20 18:55:00,18.8,14.8,29.75,West,268,14.0,15.0,84,0.00,,,0.00,Wunderground v.1.15,2013-02-20 23:55:00,
2013-02-20 19:00:00,18.8,14.8,29.75,West,277,14.0,15.0,84,0.00,,,0.00,Wunderground v.1.15,2013-02-21 00:00:00,
2013-02-20 19:05:00,18.8,15.0,29.76,WNW,284,14.0,20.0,85,0.00,,,0.00,Wunderground v.1.15,2013-02-21 00:05:00,
2013-02-20 19:10:00,18.8,15.0,29.76,West,274,15.0,15.0,85,0.00,,,0.00,Wunderground v.1.15,2013-02-21 00:10:00,
2013-02-20 19:15:00,18.8,15.0,29.76,WNW,283,15.0,18.0,85,0.00,,,0.00,Wunderground v.1.15,2013-02-21 00:15:00,
2013-02-20 19:20:00,18.8,15.0,29.75,West,272,15.0,15.0,85,0.00,,,0.00,Wunderground v.1.15,2013-02-21 00:20:00,
2013-02-20 19:30:00,18.8,15.0,29.76,West,263,11.0,11.0,85,0.00,,,0.00,Wunderground v.1.15,2013-02-21 00:30:00,
2013-02-20 19:35:00,18.8,14.8,29.76,West,273,12.0,12.0,84,0.00,,,0.00,Wunderground v.1.15,2013-02-21 00:35:00,
2013-02-20 19:40:00,18.8,15.0,29.76,SW,234,11.0,11.0,85,0.00,,,0.00,Wunderground v.1.15,2013-02-21 00:40:00,
2013-02-20 19:45:00,18.7,14.7,29.76,West,281,10.0,15.0,84,0.00,,,0.00,Wunderground v.1.15,2013-02-21 00:45:00,
2013-02-20 19:50:00,18.7,14.7,29.76,WNW,290,12.0,13.0,84,0.00,,,0.00,Wunderground v.1.15,2013-02-21 00:50:00,
2013-02-20 19:55:00,18.7,14.7,29.76,West,262,12.0,13.0,84,0.00,,,0.00,Wunderground v.1.15,2013-02-21 00:55:00,
2013-02-20 20:00:00,18.7,14.7,29.76,West,277,10.0,11.0,84,0.00,,,0.00,Wunderground v.1.15,2013-02-21 01:00:00,
2013-02-20 20:05:00,18.7,14.7,29.76,West,281,10.0,13.0,84,0.00,,,0.00,Wunderground v.1.15,2013-02-21 01:05:00,
2013-02-20 20:10:00,18.8,14.8,29.77,WNW,288,9.0,10.0,84,0.00,,,0.00,Wunderground v.1.15,2013-02-21 01:10:00,
2013-02-20 20:15:00,18.9,14.6,29.77,West,265,10.0,10.0,83,0.00,,,0.00,Wunderground v.1.15,2013-02-21 01:15:00,
2013-02-20 20:20:00,19.0,14.7,29.77,West,260,11.0,11.0,83,0.00,,,0.00,Wunderground v.1.15,2013-02-21 01:20:00,
2013-02-20 20:25:00,19.0,14.4,29.77,West,266,11.0,16.0,82,0.00,,,0.00,Wunderground v.1.15,2013-02-21 01:25:00,
2013-02-20 20:35:00,19.1,14.5,29.77,West,266,12.0,12.0,82,0.00,,,0.00,Wunderground v.1.15,2013-02-21 01:35:00,
2013-02-20 20:40:00,19.2,14.3,29.77,West,271,13.0,13.0,81,0.00,,,0.00,Wunderground v.1.15,2013-02-21 01:40:00,
2013-02-20 20:45:00,19.2,14.3,29.77,West,267,14.0,16.0,81,0.00,,,0.00,Wunderground v.1.15,2013-02-21 01:45:00,
2013-02-20 20:50:00,19.2,14.3,29.76,West,264,14.0,14.0,81,0.00,,,0.00,Wunderground v.1.15,2013-02-21 01:50:00,
2013-02-20 20:55:00,19.3,14.4,29.77,West,262,12.0,14.0,81,0.00,,,0.00,Wunderground v.1.15,2013-02-21 01:55:00,
2013-02-20 21:00:00,19.3,14.1,29.78,West,271,11.0,17.0,80,0.00,,,0.00,Wunderground v.1.15,2013-02-21 02:00:00,
2013-02-20 21:05:00,19.4,14.5,29.78,WSW,257,11.0,17.0,81,0.00,,,0.00,Wunderground v.1.15,2013-02-21 02:05:00,
2013-02-20 21:10:00,19.3,14.4,29.79,WSW,247,11.0,19.0,81,0.00,,,0.00,Wunderground v.1.15,2013-02-21 02:10:00,
2013-02-20 21:15:00,19.5,14.6,29.79,West,260,12.0,19.0,81,0.00,,,0.00,Wunderground v.1.15,2013-02-21 02:15:00,
2013-02-20 21:20:00,19.5,14.3,29.79,West,259,14.0,14.0,80,0.00,,,0.00,Wunderground v.1.15,2013-02-21 02:20:00,
2013-02-20 21:25:00,19.3,14.4,29.79,West,271,13.0,14.0,81,0.00,,,0.00,Wunderground v.1.15,2013-02-21 02:25:00,
2013-02-20 21:35:00,19.2,14.6,29.79,WNW,286,12.0,14.0,82,0.00,,,0.00,Wunderground v.1.15,2013-02-21 02:35:00,
2013-02-20 21:40:00,19.1,14.8,29.79,WSW,246,11.0,11.0,83,0.00,,,0.00,Wunderground v.1.15,2013-02-21 02:40:00,
2013-02-20 21:45:00,18.9,14.6,29.79,West,266,10.0,11.0,83,0.00,,,0.00,Wunderground v.1.15,2013-02-21 02:45:00,
2013-02-20 21:50:00,18.8,14.8,29.80,West,260,10.0,14.0,84,0.00,,,0.00,Wunderground v.1.15,2013-02-21 02:50:00,
2013-02-20 21:55:00,18.6,14.8,29.80,West,277,12.0,14.0,85,0.00,,,0.00,Wunderground v.1.15,2013-02-21 02:55:00,
2013-02-20 21:59:00,18.6,15.1,29.79,West,261,12.0,12.0,86,0.00,,,0.00,Wunderground v.1.15,2013-02-21 02:59:00,
2013-02-20 22:05:00,18.6,14.8,29.79,WSW,254,11.0,14.0,85,0.00,,,0.00,Wunderground v.1.15,2013-02-21 03:05:00,
2013-02-20 22:10:00,18.5,15.0,29.79,WNW,294,12.0,13.0,86,0.00,,,0.00,Wunderground v.1.15,2013-02-21 03:10:00,
2013-02-20 22:15:00,18.5,15.0,29.79,West,270,13.0,13.0,86,0.00,,,0.00,Wunderground v.1.15,2013-02-21 03:15:00,
2013-02-20 22:20:00,18.5,15.0,29.79,West,269,13.0,19.0,86,0.00,,,0.00,Wunderground v.1.15,2013-02-21 03:20:00,
2013-02-20 22:25:00,18.4,14.9,29.79,WSW,254,12.0,19.0,86,0.00,,,0.00,Wunderground v.1.15,2013-02-21 03:25:00,
2013-02-20 22:30:00,18.2,15.0,29.79,West,267,11.0,13.0,87,0.00,,,0.00,Wunderground v.1.15,2013-02-21 03:30:00,
2013-02-20 22:40:00,18.0,14.8,29.79,West,272,13.0,14.0,87,0.00,,,0.00,Wunderground v.1.15,2013-02-21 03:40:00,
2013-02-20 22:45:00,18.0,14.8,29.79,West,272,13.0,16.0,87,0.00,,,0.00,Wunderground v.1.15,2013-02-21 03:45:00,
2013-02-20 22:50:00,18.0,14.8,29.79,West,259,13.0,13.0,87,0.00,,,0.00,Wunderground v.1.15,2013-02-21 03:50:00,
2013-02-20 22:55:00,17.9,14.7,29.79,WSW,258,14.0,14.0,87,0.00,,,0.00,Wunderground v.1.15,2013-02-21 03:55:00,
2013-02-20 23:00:00,17.9,14.7,29.79,West,271,14.0,14.0,87,0.00,,,0.00,Wunderground v.1.15,2013-02-21 04:00:00,
2013-02-20 23:05:00,17.8,14.6,29.78,WNW,283,13.0,16.0,87,0.00,,,0.00,Wunderground v.1.15,2013-02-21 04:05:00,
2013-02-20 23:10:00,17.8,14.6,29.78,WNW,282,14.0,14.0,87,0.00,,,0.00,Wunderground v.1.15,2013-02-21 04:10:00,
2013-02-20 23:15:00,17.8,14.6,29.78,West,267,14.0,14.0,87,0.00,,,0.00,Wunderground v.1.15,2013-02-21 04:15:00,
2013-02-20 23:20:00,17.7,14.5,29.78,West,262,13.0,13.0,87,0.00,,,0.00,Wunderground v.1.15,2013-02-21 04:20:00,
2013-02-20 23:25:00,17.7,14.8,29.78,West,275,13.0,13.0,88,0.00,,,0.00,Wunderground v.1.15,2013-02-21 04:25:00,
2013-02-20 23:30:00,17.6,14.7,29.79,NW,306,14.0,14.0,88,0.00,,,0.00,Wunderground v.1.15,2013-02-21 04:30:00,
2013-02-20 23:40:00,17.5,14.8,29.78,West,273,15.0,15.0,89,0.00,,,0.00,Wunderground v.1.15,2013-02-21 04:40:00,
2013-02-20 23:45:00,17.5,14.6,29.79,WNW,282,14.0,15.0,88,0.00,,,0.00,Wunderground v.1.15,2013-02-21 04:45:00,
2013-02-20 23:50:00,17.4,14.5,29.78,West,261,12.0,12.0,88,0.00,,,0.00,Wunderground v.1.15,2013-02-21 04:50:00,
2013-02-20 23:55:00,17.3,14.4,29.79,West,269,13.0,13.0,88,0.00,,,0.00,Wunderground v.1.15,2013-02-21 04:55:00,